Regional Weather Roundup
Issued by NWS Midland/Odessa, TX

Skip options and go directly to product.
Home | Oldest Version | Previous Version | Current Version | All | Text Only | Save Text | Print | Product List | Glossary Off

Skip product version selection by date and time.   

856
ASUS44 KMAF 190910
RWRMAF
MIDLAND AREA WEATHER ROUNDUP
NATIONAL WEATHER SERVICE MIDLAND TX
300 AM CST FRI DEC 19 2014

...IN SOUTHWEST TEXAS AND SOUTHEAST NEW MEXICO...

CITY           SKY/WX    TMP DP  RH WIND       PRES   REMARKS
ALPINE         CLEAR     34  29  82 S5        30.17S WCI  29
ANDREWS        FAIR      38  37  98 E8        30.10F WCI  32
ARTESIA        CLEAR     37  37 100 W8        30.10S WCI  31
BIG SPRING     CLOUDY    42  36  80 N9        30.16S WCI  36
CARLSBAD       CLEAR     45  35  68 NW3       30.08S
DRYDEN           N/A     51  38  60 NW7       30.04S
FORT STOCKTON  CLEAR     45  32  60 W7        30.10R
GUAD PASS      FOG       34  34 100 SW14      30.11S VSB 1/4 WCI  25
HOBBS          PTCLDY    37  37 100 E9        30.11S WCI  31
MARFA          CLEAR     30  25  80 NE7       30.13F WCI  23
MIDLAND AIRPK  PTCLDY    41  37  87 NE8       30.12F WCI  36
MIDLAND INTL   PTCLDY    40  37  89 NE13      30.10F WCI  32
ODESSA         PTCLDY    40  36  86 NE12      30.11F WCI  33
PECOS          PTCLDY    41  33  73 SW8       30.09S WCI  36
PRESIDIO       FAIR      44  32  61 N7        30.09S
SEMINOLE       PTCLDY    38  35  91 CALM      30.12F
SNYDER         CLOUDY    39  37  90 NE6       30.14S WCI  35
WINK           PTCLDY    45  38  76 W7        30.07S
$$
...OTHER STATIONS IN TEXAS...

CITY           SKY/WX    TMP DP  RH WIND       PRES   REMARKS
ABILENE        CLOUDY    42  40  92 N8        30.13R WCI  37
AMARILLO       MIX PCPN  36  34  92 S9        30.13F FOG     WCI  29
AUSTIN         LGT RAIN  49  49 100 N12       30.05S FOG
BROWNSVILLE    CLOUDY    69  67  93 S3        29.95F
CORPUS CHRISTI CLOUDY    68  66  93 S5        29.95S
DALLAS FTW     CLOUDY    46  43  89 NE7       30.13F
DEL RIO        CLOUDY    61  56  83 W6        30.01S
EL PASO        PTCLDY    45  37  73 W10       30.12F WCI  40
HOUSTON INT    TSTM      57  56  96 CALM      30.06R FOG
LUBBOCK        LGT RAIN  39  37  92 CALM      30.13R
SAN ANGELO     CLOUDY    48  43  82 N12       30.10R
SAN ANTONIO    DRIZZLE   53  50  89 NE9       30.02F FOG
WACO           CLOUDY    47  45  93 NE10      30.11F
WICHITA FALLS  NOT AVBL
$$
...OTHER LOCATIONS IN NEW MEXICO...

CITY           SKY/WX    TMP DP  RH WIND       PRES   REMARKS
ALAMAGORDO     CLOUDY    41  39  93 N3        30.14S
ALBUQUERQUE    CLEAR     34  27  75 NW9       30.16R WCI  27
CANNON AFB     CLOUDY    36  33  91 SE7       30.10R FOG     WCI  30
CLOVIS         CLOUDY    36  32  87 E8        30.10S WCI  29
HOLLOMAN AFB   MOCLDY    40  39  99 NW6       30.13S WCI  35
ROSWELL        MOCLDY    41  35  79 N5        30.09S WCI  38
RUIDOSO        CLOUDY    32  30  93 N9        30.12S WCI  24
SANTA FE       CLEAR     28  23  81 NW9       30.11S WCI  19
TRUTH OR CONSE PTCLDY    37  32  82 NW10      30.14S WCI  30
TUCUMCARI      CLOUDY    32  27  81 N8        30.08S WCI  25
$$

USA.gov is the U.S. government's official web portal to all federal, state and local government web resources and services.